• In Moldova, Republic
  • List of Countries
  • For 7 days
  • Water Temperature
  • Satellite Maps
  • Weather Map
  • Weather Widgets
  • user-avatar
    Login

    Hourly Weather Barra

    Today, 25 May, Thursday

    Time Temperature Precipitation Wind Pressure Humidity
    00:00 +18°C° 0 mm 3 mps 751 mmHg 93%
    01:00 +18°C° 0 mm 3 mps 751 mmHg 93%
    02:00 +18°C° 0 mm 3 mps 751 mmHg 93%
    03:00 +18°C° 0 mm 4 mps 751 mmHg 92%
    04:00 +18°C° 0 mm 3 mps 751 mmHg 93%
    05:00 +18°C° 0 mm 3 mps 751 mmHg 92%
    06:00 +17°C° 0 mm 3 mps 751 mmHg 91%
    07:00 +17°C° 0 mm 4 mps 751 mmHg 90%
    08:00 +20°C° 0 mm 4 mps 751 mmHg 81%
    09:00 +22°C° 0 mm 4 mps 752 mmHg 71%
    10:00 +25°C° 0 mm 4 mps 752 mmHg 58%
    11:00 +26°C° 0 mm 4 mps 752 mmHg 55%
    12:00 +27°C° 0 mm 4 mps 751 mmHg 51%
    13:00 +27°C° 0 mm 4 mps 751 mmHg 48%
    14:00 +27°C° 0 mm 4 mps 751 mmHg 52%
    15:00 +26°C° 0 mm 4 mps 751 mmHg 55%
    16:00 +26°C° 0 mm 3 mps 750 mmHg 62%
    17:00 +22°C° 0 mm 3 mps 751 mmHg 70%
    18:00 +20°C° 0 mm 3 mps 751 mmHg 77%
    19:00 +18°C° 0 mm 3 mps 751 mmHg 85%
    20:00 +18°C° 0 mm 3 mps 751 mmHg 86%
    21:00 +18°C° 0 mm 3 mps 751 mmHg 87%
    22:00 +18°C° 0 mm 3 mps 752 mmHg 87%
    23:00 +18°C° 0 mm 3 mps 751 mmHg 88%

    Tomorrow, 26 May, Friday

    Time Temperature Precipitation Wind Pressure Humidity
    00:00 +18°C° 0 mm 3 mps 751 mmHg 89%
    01:00 +18°C° 0 mm 3 mps 751 mmHg 91%
    02:00 +18°C° 0 mm 3 mps 751 mmHg 91%
    03:00 +18°C° 0 mm 3 mps 751 mmHg 92%
    04:00 +18°C° 0 mm 3 mps 751 mmHg 93%
    05:00 +18°C° 0 mm 3 mps 751 mmHg 93%
    06:00 +18°C° 0 mm 3 mps 751 mmHg 93%
    07:00 +18°C° 0 mm 3 mps 751 mmHg 94%
    08:00 +20°C° 0 mm 3 mps 751 mmHg 85%
    09:00 +22°C° 0 mm 3 mps 752 mmHg 76%
    10:00 +26°C° 0 mm 4 mps 752 mmHg 67%
    11:00 +26°C° 0 mm 4 mps 751 mmHg 64%
    12:00 +27°C° 0 mm 4 mps 751 mmHg 60%
    13:00 +27°C° 0 mm 4 mps 751 mmHg 57%
    14:00 +27°C° 0 mm 4 mps 750 mmHg 60%
    15:00 +26°C° 0 mm 4 mps 750 mmHg 63%
    16:00 +26°C° 0 mm 4 mps 750 mmHg 65%
    17:00 +23°C° 0 mm 4 mps 750 mmHg 73%
    18:00 +21°C° 0 mm 4 mps 750 mmHg 81%
    19:00 +19°C° 0 mm 3 mps 751 mmHg 88%
    20:00 +19°C° 0 mm 3 mps 751 mmHg 89%
    21:00 +19°C° 0 mm 3 mps 752 mmHg 89%
    22:00 +19°C° 0 mm 3 mps 752 mmHg 90%
    23:00 +19°C° 0 mm 3 mps 752 mmHg 91%

    Day after tomorrow, 27 May, Saturday

    Time Temperature Precipitation Wind Pressure Humidity
    00:00 +19°C° 0 mm 3 mps 752 mmHg 91%
    01:00 +18°C° 0 mm 3 mps 752 mmHg 92%
    02:00 +18°C° 0 mm 3 mps 751 mmHg 92%
    03:00 +18°C° 0 mm 3 mps 751 mmHg 93%
    04:00 +18°C° 0 mm 3 mps 751 mmHg 93%
    05:00 +18°C° 0 mm 3 mps 751 mmHg 94%
    06:00 +18°C° 0 mm 3 mps 751 mmHg 94%
    07:00 +18°C° 0 mm 3 mps 752 mmHg 94%
    08:00 +20°C° 0 mm 3 mps 752 mmHg 87%
    09:00 +22°C° 0 mm 4 mps 752 mmHg 79%
    10:00 +25°C° 0 mm 4 mps 752 mmHg 72%
    11:00 +25°C° 0 mm 4 mps 752 mmHg 68%
    12:00 +26°C° 0 mm 4 mps 751 mmHg 64%
    13:00 +26°C° 0 mm 4 mps 751 mmHg 60%
    14:00 +26°C° 0 mm 4 mps 750 mmHg 63%
    15:00 +25°C° 0 mm 4 mps 750 mmHg 66%
    16:00 +25°C° 0 mm 4 mps 750 mmHg 69%
    17:00 +22°C° 0 mm 3 mps 750 mmHg 77%
    18:00 +20°C° 0 mm 3 mps 750 mmHg 84%
    19:00 +18°C° 0 mm 3 mps 751 mmHg 92%
    20:00 +18°C° 0 mm 3 mps 751 mmHg 93%
    21:00 +18°C° 0 mm 3 mps 752 mmHg 94%
    22:00 +18°C° 0 mm 3 mps 752 mmHg 94%
    23:00 +18°C° 0 mm 3 mps 752 mmHg 94%

    28 May, Sunday

    Time Temperature Precipitation Wind Pressure Humidity
    00:00 +18°C° 0 mm 3 mps 751 mmHg 94%
    01:00 +18°C° 0 mm 3 mps 751 mmHg 94%
    02:00 +17°C° 0 mm 3 mps 751 mmHg 94%
    03:00 +17°C° 0 mm 3 mps 751 mmHg 94%
    04:00 +17°C° 0 mm 3 mps 750 mmHg 94%
    05:00 +17°C° 0.1 mm 3 mps 751 mmHg 94%
    06:00 +17°C° 0.1 mm 3 mps 751 mmHg 94%
    07:00 +17°C° 0.1 mm 3 mps 751 mmHg 94%
    08:00 +19°C° 0 mm 4 mps 752 mmHg 86%
    09:00 +21°C° 0 mm 4 mps 752 mmHg 78%
    10:00 +25°C° 0 mm 4 mps 752 mmHg 70%
    11:00 +25°C° 0 mm 4 mps 751 mmHg 67%
    12:00 +26°C° 0 mm 4 mps 751 mmHg 63%
    13:00 +27°C° 0 mm 4 mps 750 mmHg 60%
    14:00 +26°C° 0 mm 4 mps 750 mmHg 62%
    15:00 +26°C° 0 mm 3 mps 750 mmHg 64%
    16:00 +26°C° 0 mm 3 mps 749 mmHg 66%
    17:00 +22°C° 0 mm 3 mps 750 mmHg 74%
    18:00 +20°C° 0 mm 3 mps 750 mmHg 83%
    19:00 +18°C° 0 mm 3 mps 751 mmHg 91%
    20:00 +18°C° 0 mm 3 mps 751 mmHg 92%
    21:00 +18°C° 0 mm 3 mps 751 mmHg 92%
    22:00 +18°C° 0 mm 3 mps 752 mmHg 92%
    23:00 +18°C° 0 mm 3 mps 751 mmHg 92%

    29 May, Monday

    Time Temperature Precipitation Wind Pressure Humidity
    00:00 +18°C° 0 mm 3 mps 751 mmHg 92%
    01:00 +18°C° 0 mm 3 mps 751 mmHg 92%
    02:00 +18°C° 0.1 mm 3 mps 751 mmHg 93%
    03:00 +18°C° 0.1 mm 3 mps 751 mmHg 94%
    04:00 +18°C° 0.1 mm 3 mps 750 mmHg 95%
    05:00 +18°C° 0 mm 3 mps 751 mmHg 95%
    06:00 +18°C° 0 mm 3 mps 751 mmHg 95%
    07:00 +18°C° 0 mm 4 mps 751 mmHg 96%
    08:00 +21°C° 0 mm 4 mps 752 mmHg 86%
    09:00 +23°C° 0 mm 4 mps 752 mmHg 77%
    10:00 +26°C° 0 mm 4 mps 752 mmHg 68%
    11:00 +26°C° 0 mm 4 mps 752 mmHg 63%
    12:00 +27°C° 0 mm 4 mps 751 mmHg 59%
    13:00 +28°C° 0 mm 4 mps 750 mmHg 54%
    14:00 +27°C° 0 mm 4 mps 750 mmHg 56%
    15:00 +27°C° 0 mm 4 mps 750 mmHg 58%
    16:00 +26°C° 0 mm 4 mps 750 mmHg 61%
    17:00 +24°C° 0 mm 3 mps 750 mmHg 70%
    18:00 +21°C° 0 mm 3 mps 751 mmHg 80%
    19:00 +19°C° 0 mm 3 mps 751 mmHg 89%
    20:00 +18°C° 0 mm 3 mps 751 mmHg 90%
    21:00 +18°C° 0 mm 3 mps 752 mmHg 91%
    22:00 +18°C° 0 mm 3 mps 752 mmHg 92%
    23:00 +19°C° 0 mm 3 mps 752 mmHg 93%

    30 May, Tuesday

    Time Temperature Precipitation Wind Pressure Humidity
    00:00 +19°C° 0 mm 3 mps 752 mmHg 94%
    01:00 +19°C° 0 mm 3 mps 751 mmHg 94%
    02:00 +19°C° 0 mm 4 mps 751 mmHg 94%
    03:00 +19°C° 0 mm 4 mps 751 mmHg 94%
    04:00 +19°C° 0 mm 4 mps 751 mmHg 94%
    05:00 +19°C° 0 mm 4 mps 751 mmHg 93%
    06:00 +19°C° 0 mm 4 mps 752 mmHg 92%
    07:00 +19°C° 0 mm 4 mps 752 mmHg 91%
    08:00 +21°C° 0 mm 4 mps 752 mmHg 84%
    09:00 +22°C° 0 mm 4 mps 752 mmHg 76%
    10:00 +25°C° 0 mm 4 mps 752 mmHg 69%
    11:00 +26°C° 0 mm 4 mps 752 mmHg 68%
    12:00 +26°C° 0 mm 4 mps 751 mmHg 67%
    13:00 +27°C° 0 mm 5 mps 751 mmHg 66%
    14:00 +27°C° 0 mm 4 mps 750 mmHg 69%
    15:00 +26°C° 0 mm 4 mps 750 mmHg 71%
    16:00 +26°C° 0 mm 4 mps 750 mmHg 74%
    17:00 +23°C° 0 mm 4 mps 750 mmHg 80%
    18:00 +22°C° 0 mm 4 mps 751 mmHg 86%
    19:00 +21°C° 0 mm 3 mps 751 mmHg 92%
    20:00 +20°C° 0.1 mm 3 mps 751 mmHg 92%
    21:00 +20°C° 0.1 mm 3 mps 752 mmHg 93%
    22:00 +20°C° 0.1 mm 3 mps 752 mmHg 94%
    23:00 +21°C° 0.1 mm 4 mps 752 mmHg 94%
    Show more